Regional Weather Roundup
Issued by NWS

Home | Current Version | Previous Version | Graphics & Text | Print | Product List | Glossary On
Versions: 1 2 3 4 5 6 7 8 9 10 11 12 13 14 15 16 17 18 19 20 21 22 23 24 25 26 27 28 29 30 31 32 33 34 35 36 37 38 39 40 41 42 43 44 45 46 47 48 49 50
000
ASUS43 KTOP 231008
RWRKS

WEATHER ROUNDUP FOR KANSAS
NATIONAL WEATHER SERVICE GOODLAND KS
500 AM CDT SAT SEP 23 2017

NOTE:  "FAIR" INDICATES FEW OR NO CLOUDS BELOW 12,000 FEET WITH NO
SIGNIFICANT WEATHER AND/OR OBSTRUCTIONS TO VISIBILITY.

KSZ001>006-013>018-027>032-041>047-231100-
NORTHWEST KANSAS

CITY           SKY/WX    TMP DP  RH WIND       PRES   REMARKS
GOODLAND       CLOUDY    69  62  78 S10       29.85S
HAYS           PTCLDY    73  65  75 S14       29.88R
HILL CITY      CLOUDY    74  66  76 S10       29.86R
RUSSELL        PTCLDY    73  64  73 S18       29.87R
$$

KSZ061>065-074>080-084>089-231100-
SOUTHWEST KANSAS

CITY           SKY/WX    TMP DP  RH WIND       PRES   REMARKS
DODGE CITY     CLEAR     71  64  78 S18       29.89S
ELKHART          N/A     64  63  97 S13         N/A
GARDEN CITY    CLEAR     69  63  81 SE13      29.88S
GREAT BEND     CLEAR     73  65  75 S17G25    29.89S
LIBERAL        CLEAR     69  64  84 S13       29.90R
PRATT          CLEAR     71  63  75 S14G20    29.92S
$$

KSZ066>073-081>083-090>101-231100-
SOUTHEAST KANSAS

CITY           SKY/WX    TMP DP  RH WIND       PRES   REMARKS
CHANUTE        CLEAR     69  66  90 SE6       29.98R
COFFEYVILLE    CLEAR     68  65  90 CALM      29.96R
HUTCHINSON     CLEAR     73  66  78 S13       29.92R
MEDICINE LODGE   N/A     71  63  75 SE7       29.91S
NEWTON         CLEAR     71  65  81 S9        29.95R
PARSONS        CLEAR     70  66  87 CALM      29.98R
WICHITA INTL   PTCLDY    71  66  84 S8        29.93R
WICHITA JABRA  CLEAR     70  67  90 S8        29.94R
WICHITA MCCONL CLEAR     73  64  73 S9        29.94R
WINFIELD       CLEAR     71  66  84 S8        29.96R
$$

KSZ007>012-019>026-033>040-048>060-102>105-231100-
NORTHEAST KANSAS

CITY           SKY/WX    TMP DP  RH WIND       PRES   REMARKS
CONCORDIA      CLEAR     71  67  87 S13       29.90S
EMPORIA        CLEAR     69  65  86 S8        29.95S
LAWRENCE       CLEAR     70  68  93 E6        29.96S
MANHATTAN      CLEAR     73  67  81 S6        29.93R
MARYSVILLE     CLEAR     72  68  88 S8        29.93S
OLATHE IND     CLEAR     71  66  84 SE8       29.98S
OLATHE EXE     PTCLDY    68  68 100 SE3       29.98S
SALINA         CLEAR     77  65  66 S13       29.91R
TOPEKA BILLARD CLEAR     69  68  96 NE3       29.95R
TOPEKA FORBES  CLEAR     71  67  87 SE7       29.95S
$$




USA.gov is the U.S. government's official web portal to all federal, state and local government web resources and services.